Location: Los Gatos B&B
(42.6926°N, 77.0646°W)
Time: 12:26:57
(UTC-04:00)

SL-16 R/B - Visible Passes

Search period start: 26 May 2016 00:00
Search period end: 05 June 2016 00:00
Orbit: 843 x 847 km, 71.0° (Epoch: 25 May)

Date Brightness Start Highest point End Pass type
(mag) Time Alt. Az. Time Alt. Az. Time Alt. Az.
26 May 4.3 22:15:20 10° WSW 22:20:14 30° NW 22:25:10 10° N visible
27 May 4.3 22:01:13 10° WSW 22:06:09 30° NW 22:11:08 10° N visible
28 May 4.3 21:47:05 10° WSW 21:52:05 31° NW 21:57:06 10° N visible
29 May 5.0 04:56:15 10° N 05:00:53 25° NE 05:05:28 10° ESE visible
29 May 4.3 21:32:59 10° WSW 21:38:01 32° NW 21:43:05 10° N visible
30 May 4.9 04:42:15 10° N 04:46:49 24° NE 04:51:21 10° ESE visible
30 May 4.3 21:18:53 10° WSW 21:23:56 33° NW 21:29:03 10° N visible
31 May 4.9 04:28:13 10° N 04:32:43 23° NE 04:37:12 10° ESE visible
31 May 4.2 21:04:46 10° WSW 21:09:52 34° NW 21:15:01 10° N visible
01 Jun 4.9 04:14:12 10° N 04:18:38 23° NE 04:23:04 10° ESE visible
02 Jun 4.9 04:00:11 10° N 04:04:33 22° NE 04:08:55 10° E visible
03 Jun 4.9 03:46:10 10° N 03:50:29 22° NE 03:54:46 10° E visible
04 Jun 4.9 03:32:09 10° N 03:36:24 21° NE 03:40:37 10° E visible
